Regional Weather Roundup
Issued by NWS Charleston, SC

Current Version | Previous Version | Graphics & Text | Print | Product List | Glossary On
Versions: 1 2 3 4 5 6 7 8 9 10 11 12 13 14 15 16 17 18 19 20 21 22 23 24 25 26 27 28 29 30 31 32 33 34 35 36 37 38 39 40 41 42 43 44 45 46 47 48 49 50
000 ASUS42 KCHS 241027 RWRCHS Regional Weather Roundup National Weather Service Charleston SC 500 AM EST SAT FEB 24 2018 NOTE: "fair" indicates few or no clouds below 12,000 feet with no significant weather and/or obstructions to visibility. Not all stations are quality controlled. Use data with caution, especially dewpoint observations. SCZ027-030-031-034>040-042>050-241100- ...Southeast South Carolina... CITY SKY/WX TMP DP RH WIND PRES REMARKS N Charleston FAIR 63 62 97 S3 30.25S FOG Waterfront Prk N/A 64 64 100 CALM 30.11S Mount Pleasant FAIR 61 61 100 CALM 30.26S FOG Johns Island FAIR 64 64 100 CALM 30.26S Pinopolis N/A 61 61 100 CALM 30.16S Moncks Corner FOG 55 55 100 CALM 30.25S VSB 1/2 Summerville FOG 61 61 100 CALM 30.26S VSB 1/4 Beaufort MCAS FOG 63 63 100 CALM 30.25S VSB 3/4 Beaufort Arpt FOG 63 63 100 CALM 30.25R VSB 1 Hilton Head Is FAIR 61 61 100 CALM 30.26R Walterboro FOG 59 59 100 CALM 30.26S VSB 1/4 Allendale FOG 59 59 100 CALM 30.24S VSB 3/4 ...Southern Midlands and Pee Dee... CITY SKY/WX TMP DP RH WIND PRES REMARKS Georgetown FOG 55 55 100 CALM 30.27S VSB 1/2 Kingstree FOG 61 59 94 CALM 30.26S VSB 1/4 Orangeburg CLOUDY 63 62 97 SW5 30.25S FOG Barnwell FOG 61 61 100 CALM 30.25R VSB<1/4 Aiken CLOUDY 57 57 100 SE3 30.27S Manning CLOUDY 61 57 88 MISG 30.26S Columbia MOCLDY 62 62 100 CALM 30.23S FOG Sumter CLOUDY 63 63 100 S6 30.22S FOG Florence CLOUDY 63 62 97 SW7 30.25F FOG Myrtle Beach FOG 64 63 94 CALM 30.27S VSB 3/4 N Myrtle Beach MOCLDY 64 64 100 SW7 30.25F $$ GAZ063-065-086>088-099>101-113>116-118-119-134>141-150-241100- ...Southeast Georgia... CITY SKY/WX TMP DP RH WIND PRES REMARKS Savannah Arpt FOG 61 61 100 CALM 30.25S VSB 1/2 Hunter AAF FAIR 62 60 93 CALM 30.22S Fort Stewart FOG 59 59 100 CALM 30.23S VSB 3/8 Statesboro FOG 59 32 35 CALM 30.25S VSB 1/4 Sylvania FOG 60 60 100 CALM 30.25S VSB 1/2 Claxton FOG 58 57 99 CALM 30.24S VSB 1/2 ...CSRA, Central and far Southeast Georgia... CITY SKY/WX TMP DP RH WIND PRES REMARKS Thomson CLOUDY 62 61 97 SW5 30.27S Augusta-Bush FOG 55 55 100 CALM 30.23S VSB 1/4 Augusta-Daniel FOG 62 61 96 SE5 30.23S VSB 1 Swainsboro CLOUDY 63 63 100 S5 30.24S FOG Vidalia CLOUDY 63 61 94 CALM 30.23F FOG Eastman HAZE 58 52 80 CALM 30.24S VSB 1/2 Hazlehurst CLOUDY 65 65 100 S3 30.22S Alma FOG 63 62 97 CALM 30.23S VSB 3/4 Waycross FAIR 65 62 90 S6 30.23S Jesup PTSUNNY 64 63 94 CALM 30.24S Baxley CLOUDY 61 61 100 S5 30.23S FOG Brunswick FAIR 61 59 94 CALM 30.24F Saint Simons FAIR 65 64 97 S5 30.24F $$ SCZ027-028-034-036>038-045-046-048>050-GAZ119-141-241100- ...Lake and Supplemental Coastal Observations... STATION/POSITION TIME TEMP WIND PRES WAVE SWELL AIR SEA DIR/SP/G HT/PER HT/PER/DIR (UTC) (F) (DEG/KT/KT) (MB) (FT/S) (FT/S/D) Winyah Bay 0945 63 CALM 1025.0S Lake Murray 1020 62 190/ 5/ 6 1023.4R ACE Basin NERRS 0945 63 CALM 1024.0S Fort Pulaski 1000 63 62 160/ 2/ 3 1024.5 Sapelo Island 1000 65 160/ 4 1024.0 $$ ANZ835-935-AMZ111-154-330-350-352-354-370-450-454-472-241100- ...C-MAN and Buoy Observations... STATION/POSITION TIME TEMP WIND PRES WAVE SWELL AIR SEA DIR/SP/G HT/PER HT/PER/DIR (UTC) (F) (DEG/KT/KT) (MB) (FT/S) (FT/S/D) Buoy 41004 1010 69 68 170/ 4/ 6 1024.3 Buoy 41008 0950 63 59 140/ 6/ 8 1023.7F 3/10 3/110/10 Folly Beach CMAN 1000 64 210/ 6/ 7 1025.0R Capers Nearshore 1008 60 64 200/ 2/ 6 1024.2R Fripp Nearshore NOT AVBL STATION/POSITION TIME TEMP WIND PRES WAVE SWELL AIR SEA DIR/SP/G HT/PER HT/PER/DIR (UTC) (F) (DEG/KT/KT) (MB) (FT/S) (FT/S/D) 5E St. Marys GA 1000 63 N/A 3/10 2/110/12 Frying Pan Buoy 1010 71 70 190/ 12/ 14 1024.4 Buoy 41025 1010 71 73 250/ 14/ 17 1024.4 Cape Lookout NC 1000 230/ 6/ 8 1024.8F Buoy 41002 0950 71 73 180/ 10/ 12 1025.8F 5/ 9 5/100/ 9 Buoy 41010 NOT AVBL St Augustine FL 1000 66 67 CALM 1024.0F $$

USA.gov is the U.S. government's official web portal to all federal, state and local government web resources and services.